Location: ??????
(41.3164°N, 22.6615°E)
Time: 23:58:18
(UTC+00:00)

Cosmos 2082 - Visible Passes

Search period start: 24 May 2022 00:00
Search period end: 03 June 2022 00:00
Orbit: 834 x 855 km, 71.0° (Epoch: 22 May)

Date Brightness Start Highest point End Pass type
(mag) Time Alt. Az. Time Alt. Az. Time Alt. Az.
24 May 4.9 18:41:20 10° N 18:46:07 27° NE 18:50:31 11° ESE visible
24 May 4.4 20:25:04 10° NW 20:30:23 45° WSW 20:32:23 32° SSW visible
25 May 5.0 18:27:08 10° N 18:31:50 26° NE 18:36:30 10° ESE visible
25 May 4.3 20:10:46 10° NW 20:16:08 47° WSW 20:18:39 28° SSW visible
26 May 4.3 19:56:29 10° NW 20:01:53 49° WSW 20:04:59 24° S visible
27 May 4.3 19:42:12 10° NNW 19:47:38 51° WSW 19:51:20 20° S visible
28 May 4.3 19:27:55 10° NNW 19:33:23 53° WSW 19:37:44 16° S visible
29 May 4.2 19:13:39 10° NNW 19:19:08 55° WSW 19:24:11 12° S visible
30 May 4.2 18:59:21 10° NNW 19:04:52 57° WSW 19:10:20 10° S visible
31 May 4.2 18:45:05 10° NNW 18:50:37 60° WSW 18:56:06 10° S visible
01 Jun 4.2 18:30:49 10° NNW 18:36:21 62° WSW 18:41:52 10° S visible
